Regional Weather Roundup
Issued by NWS Albany, NY

Home | Current Version | Previous Version | Text Only | Print | Product List | Glossary On
Versions: 1 2 3 4 5 6 7 8 9 10 11 12 13 14 15 16 17 18 19 20 21 22 23 24 25 26 27
000
ASUS41 KALY 151710
RWRALY

NEW YORK STATE HOURLY WEATHER ROUNDUP
NATIONAL WEATHER SERVICE ALBANY NY
1200 PM EST SUN JAN 15 2017

NOTE: "FAIR" INDICATES FEW OR NO CLOUDS BELOW 12,000 FEET WITH NO
SIGNIFICANT WEATHER AND/OR NO OBSTRUCTIONS TO VISIBILITY.

NYZ032-033-038>043-046>054-057>066-NYZ062>081-082-084-151800-
EAST


CITY           SKY/WX    TMP DP  RH WIND       PRES   REMARKS
ALBANY         MOSUNNY   34  16  47 W13       30.34F WCI  25
GLENS FALLS    SUNNY     34  13  41 N8        30.32F WCI  27
POUGHKEEPSIE   SUNNY     35  20  54 N6        30.33F WCI  30
NEWBURGH       SUNNY     34  23  64 VRB6      30.34F WCI  29
MONTGOMERY     SUNNY     37  21  52 NW8       30.31F WCI  31
WHITE PLAINS   MOSUNNY   35  21  56 NW12      30.32F WCI  27
ISLIP          MOSUNNY   34  23  64 NW16G23   30.32F WCI  24
NEW YORK CITY  MOSUNNY   37  21  52 NW7       30.35F WCI  32
CENTRAL PARK   SUNNY     36  21  54 MISG      30.37F
$$

NYZ005>009-017-018-044>046-055-056-151800-
CENTRAL


CITY           SKY/WX    TMP DP  RH WIND       PRES   REMARKS
FULTON         MOSUNNY   31  16  54 NW12G23   30.38F WCI  22
SYRACUSE       MOSUNNY   29  16  58 W13       30.37F WCI  19
ROME           MOSUNNY   29  17  61 W10       30.37F WCI  20
ELMIRA         CLOUDY    30  19  63 CALM      30.37F
BINGHAMTON     LGT SNOW  25  22  88 NW6       30.30F FOG     WCI  18
MONTICELLO     MOSUNNY   30  19  64 NW12G17   30.30F WCI  21
$$

NYZ026>034-041>043-087-151800-
NORTH


CITY           SKY/WX    TMP DP  RH WIND       PRES   REMARKS
WATERTOWN      CLOUDY    27  17  66 NW5       30.38F WCI  22
FORT DRUM      NOT AVBL
OGDENSBURG     FAIR      27  15  61 N3        30.39F
MASSENA        SUNNY     22  10  60 VRB3      30.42F
SARANAC LAKE   CLOUDY    19   9  65 NW8       30.24F WCI   9
PLATTSBURGH    PTSUNNY   24   7  48 N16       30.36F WCI  11
$$

NYZ001>004-010>016-019>021-085-151800-
WEST


CITY           SKY/WX    TMP DP  RH WIND       PRES   REMARKS
NIAGARA FALLS  CLOUDY    32  22  66 SW7       30.39F WCI  26
BUFFALO        CLOUDY    30  18  60 W7        30.40F WCI  23
DUNKIRK        CLOUDY    29  22  75 NW3       30.41F
JAMESTOWN      CLOUDY    25  18  74 SW3       30.34F
WELLSVILLE     CLOUDY    27  17  66 NW6       30.32F WCI  20
ROCHESTER      CLOUDY    31  22  69 W6        30.39F WCI  25
PENN YAN       CLOUDY    29  18  63 NW6       30.37F WCI  23
$$

             KEY
       WCI = WIND CHILL INDEX
       VSB = VISIBILITY
       HX  = HEAT INDEX
$$




USA.gov is the U.S. government's official web portal to all federal, state and local government web resources and services.